Temperature
14 14 14 14 14 13 12 11 10 12 12 12 12 12 13 13 13 13 13 13 13 13 12 12 12 12 11 11 11 11 12 12 11 11 11 12 12 12 12 12 13 13 13 13
14 14 14 14 14 13 13 12 12 12 12 12 13 13 14 14 13 13 13 13 13 13 12 12 12 12 11 11 11 11 11 11 11 11 11 11 11 11 12 12 12 12 13 13
13 14 14 14 14 13 13 13 13 12 12 13 13 14 14 14 14 13 13 13 13 13 13 12 12 12 12 11 11 11 11 11 11 11 11 11 11 11 11 11 11 12 12 12
11 14 15 14 14 14 14 14 13 13 13 14 14 14 14 14 14 14 14 13 13 13 13 13 12 12 12 12 11 11 11 11 11 10 10 10 10 11 11 11 11 11 11 12
11 13 13 14 14 13 14 14 13 13 14 14 14 14 14 15 14 14 14 14 14 13 13 13 13 12 12 12 12 11 11 11 10 10 10 10 10 10 10 10 11 11 11 11
11 14 15 15 15 15 15 14 15 15 14 14 14 11 13 15 14 14 14 14 14 14 14 13 13 13 12 12 12 11 11 11 11 10 10 10 10 10 10 10 10 10 11 11
11 13 12 14 14 15 13 14 16 16 16 15 14 14 15 15 15 14 14 14 14 14 14 14 13 13 12 12 12 11 11 11 11 10 10 10 10 10 10 10 10 10 10 10
10 12 13 14 13 13 14 17 17 17 17 16 16 16 15 15 15 15 14 14 14 14 14 14 14 13 13 12 12 11 11 11 11 10 10 10 10 10 10 10 10 10 10 10
11 13 15 16 16 18 18 17 17 17 17 16 16 16 15 15 15 15 15 14 14 14 14 14 14 13 13 13 12 12 11 11 11 10 10 10 10 10 10 10 10 10 10 10
11 12 15 16 17 17 18 18 18 17 17 16 16 16 16 15 15 15 15 15 15 14 14 14 14 13 13 13 12 12 11 11 11 10 10 10 10 10 10 10 10 10 10 9
12 13 15 17 17 18 18 18 17 17 17 16 16 16 16 15 15 15 15 15 15 14 14 14 14 14 13 13 12 12 12 11 11 10 10 10 10 10 10 10 9 9 9 9
14 17 16 19 19 18 18 17 17 17 16 16 16 16 15 15 15 15 15 15 14 14 14 14 14 14 13 13 13 12 12 11 11 11 10 10 10 10 10 10 9 9 9 9
20 20 20 19 19 18 18 18 17 17 16 16 16 15 15 15 15 15 15 14 14 14 14 14 14 13 13 13 13 12 12 12 11 11 10 10 10 10 10 10 9 10 10 9
20 20 19 19 19 18 18 17 17 17 16 16 16 15 15 15 15 15 14 14 14 14 14 14 14 13 13 13 13 13 12 12 11 11 11 10 10 10 10 10 10 10 10 10
20 20 20 19 19 18 18 17 16 16 16 15 15 15 15 15 15 14 14 14 14 14 14 14 14 13 13 13 13 13 13 12 12 11 11 11 11 10 10 10 10 10 10 10
20 19 19 19 19 18 17 17 16 16 16 15 15 15 15 15 14 14 14 14 14 14 14 14 13 13 13 13 13 13 13 12 12 12 11 11 11 11 10 10 10 10 10 10
20 19 19 18 18 18 18 17 17 16 16 15 15 15 15 14 14 14 14 14 14 14 13 13 13 13 13 13 13 13 13 12 12 12 12 11 11 11 11 11 10 10 10 10
20 20 20 19 19 18 18 17 17 16 16 16 15 15 15 14 14 14 14 14 14 13 13 13 13 13 13 13 13 13 13 12 12 12 12 12 11 11 11 11 11 10 10 10
20 19 19 19 18 18 18 17 17 16 16 15 15 15 15 15 14 14 14 14 13 13 13 13 13 13 13 13 13 13 13 13 12 12 12 12 12 11 11 11 11 11 11 10
19 19 19 18 18 18 17 17 17 16 16 15 15 15 15 15 14 14 14 14 14 13 13 13 13 13 13 13 13 13 13 13 13 13 12 12 12 12 12 11 11 11 11 11
19 19 18 18 18 17 17 17 16 16 16 15 15 15 15 15 14 14 14 14 14 13 13 13 13 13 13 13 13 13 13 13 13 13 12 12 12 12 12 12 11 11 11 11
18 18 18 18 17 17 17 17 16 16 16 16 15 15 15 15 14 14 14 14 14 13 13 13 13 13 13 13 13 13 13 13 13 13 13 12 12 12 12 12 12 12 11 11
17 17 17 17 17 17 16 16 16 16 16 16 16 15 15 15 15 14 14 14 14 13 13 13 13 13 13 13 13 13 13 13 13 12 12 12 12 12 12 12 12 12 12 11
15 15 16 16 16 16 16 16 16 16 16 16 15 15 15 15 15 14 14 14 13 13 13 13 13 13 13 13 13 13 13 12 12 12 12 12 12 12 12 12 12 12 12 12
13 14 14 14 15 15 15 15 15 15 15 15 15 15 15 15 14 14 14 14 13 13 13 13 13 13 13 12 12 12 12 12 12 12 12 12 12 12 12 12 12 12 12 12
11 12 12 13 13 13 14 14 14 14 14 14 15 14 14 14 14 14 14 14 13 13 13 13 13 13 12 12 12 12 12 12 12 12 12 12 12 12 12 12 12 12 12 12
10 10 10 11 11 12 12 12 13 13 13 14 14 14 14 14 14 14 14 13 13 13 13 13 13 13 12 12 12 12 12 12 12 12 12 12 12 12 12 12 12 12 12 12
Wind_Speed
3 2 3 2 2 3 3 5 5 5 4 7 6 5 6 6 7 7 7 8 8 7 7 7 8 8 8 8 9 8 8 9 10 9 9 9 9 9 9 9 9 8 8 7
3 3 2 1 1 3 3 4 3 3 5 6 4 3 4 5 6 6 7 7 7 7 7 7 7 7 7 8 8 7 8 9 9 9 9 9 9 9 9 9 9 9 9 8
0 2 3 4 6 6 4 4 6 6 6 3 2 4 4 5 5 6 7 7 7 6 6 6 6 5 6 6 6 7 8 8 9 9 9 9 9 9 9 9 9 10 10 9
3 2 4 6 4 7 6 6 7 6 5 5 6 4 4 4 4 6 6 6 6 6 5 5 4 4 4 5 6 7 7 8 8 8 9 8 9 9 9 7 7 8 9 9
4 2 6 6 4 7 6 6 8 8 6 5 2 2 5 4 3 4 4 4 4 4 4 4 4 4 4 5 5 6 7 7 7 7 8 8 8 8 7 7 8 7 7 9
4 2 5 6 4 6 5 5 7 10 9 7 6 1 4 4 3 3 4 3 4 4 3 3 4 3 3 4 5 5 5 5 6 6 7 7 7 6 6 6 6 7 8 9
4 5 8 6 5 8 5 8 6 10 10 10 9 7 4 3 2 2 3 4 3 3 3 4 3 2 2 3 3 2 3 5 6 6 6 6 6 6 6 7 7 8 8 8
5 3 8 6 10 9 10 3 6 9 9 10 8 5 4 3 2 2 3 4 4 4 5 4 3 1 2 2 1 2 3 5 6 7 6 6 7 7 7 7 8 8 8 8
9 8 5 9 9 7 6 6 8 9 8 9 8 6 5 3 2 2 3 3 3 3 5 5 3 1 1 2 1 3 3 4 5 6 6 6 7 7 7 7 7 7 7 7
5 8 7 9 6 4 7 8 8 9 9 10 8 7 6 3 2 2 2 3 3 4 5 5 5 2 1 1 3 4 3 2 3 4 5 5 5 5 5 6 6 6 7 7
6 7 5 7 10 9 7 6 7 7 8 9 9 7 6 4 3 2 2 2 2 3 4 5 4 3 1 2 4 4 3 2 2 2 2 3 3 3 3 3 3 3 3 4
8 8 8 7 9 11 10 9 10 10 8 7 8 8 7 5 4 3 2 2 2 3 4 4 4 3 1 1 3 4 2 2 1 1 1 1 2 2 3 3 5 6 5 4
6 5 7 3 6 10 11 11 11 11 10 8 7 7 6 5 3 3 2 2 2 3 4 4 3 3 2 0 3 3 3 3 2 2 2 1 0 1 2 4 5 6 7 7
5 6 4 5 7 10 10 10 10 9 8 8 7 6 5 5 3 4 4 3 3 3 3 3 2 3 2 1 2 3 3 3 3 3 3 2 2 1 1 1 2 3 4 6
9 8 6 5 6 8 8 8 8 8 8 7 6 6 6 7 6 5 4 3 2 2 3 2 2 3 3 1 1 2 2 2 3 3 3 2 2 2 1 1 1 1 2 3
8 6 5 6 8 9 9 10 10 10 9 8 8 8 8 7 6 5 4 3 3 3 4 3 3 3 2 1 1 2 2 4 3 3 2 2 2 2 2 2 2 2 2 2
10 9 9 7 9 10 11 11 12 11 10 10 10 9 7 6 5 5 5 4 4 5 4 4 4 3 2 2 2 2 2 2 3 3 3 3 3 3 3 3 3 3 3 3
11 12 10 9 10 11 11 11 10 11 10 10 9 8 8 8 8 8 6 4 3 3 5 5 4 3 3 2 2 2 2 2 3 3 3 4 4 4 4 4 4 4 3 2
10 10 10 10 10 11 11 10 10 10 10 9 9 9 9 9 9 7 5 4 5 6 6 5 5 3 3 3 2 2 2 3 3 3 4 4 4 4 4 5 5 5 4 4
9 8 9 9 8 8 9 9 9 9 9 9 9 8 8 9 8 7 6 6 7 7 5 4 4 4 4 4 2 2 3 3 4 4 4 4 5 5 5 5 5 5 5 5
8 8 8 8 8 8 9 9 9 10 9 9 10 10 10 9 8 7 6 6 7 7 7 7 5 4 4 4 3 2 3 4 4 4 4 5 5 5 5 5 6 6 5 5
4 5 7 7 7 7 6 7 8 9 9 9 10 9 8 8 8 7 7 7 7 6 6 5 5 6 6 5 3 4 4 4 4 4 5 5 5 5 6 6 6 6 6 6
3 3 3 4 6 5 4 5 7 7 9 9 10 10 10 9 7 7 7 7 7 8 6 6 8 10 9 5 4 5 5 5 5 5 5 5 5 6 6 6 6 6 6 6
5 4 3 3 4 4 3 3 4 5 6 7 8 9 8 6 6 7 7 5 7 9 7 8 11 11 9 5 5 5 5 5 5 5 5 5 5 5 6 6 6 6 6 7
6 6 6 6 4 2 0 0 2 2 3 3 4 6 6 6 7 6 6 7 9 9 7 9 12 11 7 5 6 6 6 6 6 5 5 5 5 6 6 6 6 6 6 6
6 5 5 4 3 2 1 1 1 0 1 2 3 3 4 4 6 5 4 6 8 8 7 6 6 7 6 6 7 7 6 6 7 6 6 6 6 6 6 6 8 6 6 6
5 4 4 4 4 3 3 2 1 1 1 2 3 3 3 3 4 5 6 5 5 6 6 6 6 6 6 6 7 7 6 6 6 6 6 6 6 6 6 7 6 6 5 6
Wind_Direction
83 90 115 110 134 139 133 162 166 213 235 265 280 291 303 314 326 339 340 344 349 347 346 350 356 357 359 360 2 6 15 19 14 10 15 21 23 24 26 31 34 32 35 33
50 41 72 49 196 152 148 163 179 209 258 255 262 276 302 320 332 336 332 334 339 344 347 347 349 351 356 359 360 8 19 16 11 14 20 21 20 23 28 29 28 32 31 28
149 352 18 281 223 193 195 192 175 201 235 235 240 269 286 299 313 316 321 326 334 335 331 328 332 343 351 350 359 14 18 15 13 16 21 19 22 28 28 25 28 31 28 25
114 78 265 250 217 179 188 217 202 214 226 208 221 250 277 269 281 303 315 323 326 325 325 324 329 341 350 2 11 14 15 13 12 14 18 19 25 25 22 23 27 28 26 22
120 197 282 282 197 171 177 244 209 201 212 203 174 13 314 275 266 272 294 302 297 298 298 312 325 335 3 13 12 17 14 11 9 12 19 23 23 18 16 23 28 26 24 25
129 181 248 252 196 154 115 269 218 185 190 174 133 134 270 271 280 297 321 316 310 314 320 328 328 344 17 13 14 12 7 8 12 19 26 25 20 17 16 24 26 26 30 28
161 225 261 242 152 123 150 243 204 178 179 169 180 203 231 268 263 317 335 334 337 340 336 319 324 9 10 3 2 359 24 30 27 24 30 27 26 24 22 26 30 29 28 26
157 203 260 189 147 179 211 211 171 175 176 179 199 215 226 229 243 336 345 345 349 346 334 329 342 31 0 338 325 77 63 48 36 29 31 31 32 29 28 29 33 27 25 23
189 213 237 187 195 204 172 175 181 177 180 177 182 196 196 200 228 313 332 337 340 339 334 339 351 10 330 304 142 115 82 58 44 40 36 33 37 33 30 29 33 28 28 25
241 260 238 221 230 205 187 188 182 174 168 167 176 185 186 193 227 284 316 329 339 349 348 339 340 347 305 248 144 130 113 78 54 50 41 36 38 37 38 30 29 28 26 20
249 268 266 237 211 200 189 177 160 162 170 174 172 180 184 195 219 245 279 307 328 333 324 318 329 342 4 115 136 137 137 121 85 67 58 43 39 34 34 24 24 30 19 13
219 217 192 228 205 179 170 177 174 167 171 178 177 182 181 194 211 223 252 288 318 325 322 320 330 338 354 126 150 153 158 166 165 148 100 56 27 12 16 24 29 38 37 38
204 194 188 238 180 175 179 181 176 175 174 177 185 182 178 189 204 214 236 263 294 306 308 313 326 335 329 185 165 173 187 193 187 184 183 199 248 358 348 352 14 27 29 36
186 140 174 199 190 186 183 179 173 176 178 175 173 173 172 179 191 210 234 250 271 293 303 308 311 317 317 291 175 187 196 200 191 195 197 205 215 226 241 317 343 343 2 25
196 192 198 188 168 169 169 157 161 176 179 178 174 174 177 185 203 221 233 243 265 287 294 304 305 306 316 314 192 197 196 201 197 196 198 206 211 210 214 226 264 307 334 357
178 179 168 164 174 171 165 170 178 187 185 184 186 194 196 197 207 225 234 218 223 259 270 273 282 290 305 301 231 212 220 220 196 190 196 200 203 204 212 220 237 262 279 286
154 179 190 193 191 187 187 185 187 188 185 189 198 198 191 188 204 231 238 231 229 242 250 248 259 281 291 273 229 225 230 240 215 195 205 209 210 214 214 214 227 242 249 239
193 190 183 184 186 190 196 192 188 185 188 198 192 181 183 191 207 223 230 228 234 260 261 247 248 266 275 268 235 219 219 228 220 219 222 219 219 216 212 218 228 236 245 240
199 194 192 193 187 184 188 189 192 192 191 183 179 190 199 205 211 217 205 197 218 246 258 248 249 249 259 261 240 218 221 232 237 236 230 232 228 221 218 223 229 230 227 221
192 190 189 192 185 181 189 189 185 188 189 182 184 193 204 214 209 202 194 212 224 223 233 237 238 241 250 256 238 223 233 237 241 244 238 231 230 231 227 227 229 229 223 219
183 182 183 185 189 193 192 184 181 191 191 182 186 198 208 212 199 186 188 229 248 229 227 235 226 231 237 239 235 231 240 243 243 242 240 237 235 235 233 231 231 230 226 221
164 174 182 182 183 194 196 185 186 191 187 190 199 201 201 205 199 198 213 221 237 219 208 220 223 230 232 233 222 231 241 247 248 244 241 237 234 235 235 233 232 233 229 223
98 131 154 171 183 188 174 180 190 190 192 196 198 198 202 205 192 190 230 233 223 226 215 221 228 234 240 228 219 230 240 246 249 247 243 240 236 234 236 237 233 231 229 225
59 66 81 106 116 119 150 207 200 199 203 206 207 204 199 202 216 221 223 233 210 214 216 229 234 239 236 215 218 228 236 243 247 249 249 246 242 239 237 237 237 234 230 227
51 52 56 69 81 85 240 192 141 170 192 215 227 217 207 200 211 224 214 222 227 225 227 238 241 239 224 211 218 226 232 238 241 243 243 245 245 244 242 238 235 235 231 228
45 48 48 51 54 35 31 72 103 150 179 235 260 242 226 222 225 228 222 223 226 224 222 229 230 230 216 217 223 228 232 243 252 248 243 244 246 246 246 244 241 235 232 230
35 38 39 37 29 26 31 45 40 310 243 230 257 266 248 235 227 227 227 227 224 224 225 226 221 217 219 221 226 230 231 234 237 239 241 242 242 242 243 245 242 239 233 229
Height
1576 1574 1575 1576 1577 1579 1582 1586 1590 1587 1585 1580 1576 1575 1573 1571 1570 1567 1565 1562 1559 1556 1553 1550 1547 1543 1539 1536 1532 1529 1525 1522 1519 1517 1514 1512 1511 1509 1508 1506 1506 1505 1504 1504
1577 1575 1575 1577 1576 1577 1578 1581 1582 1582 1582 1575 1574 1574 1573 1571 1570 1568 1566 1563 1561 1558 1555 1552 1549 1546 1543 1539 1535 1532 1529 1526 1523 1520 1518 1516 1514 1512 1510 1509 1508 1507 1506 1505
1585 1579 1578 1581 1574 1575 1575 1575 1577 1581 1578 1573 1573 1573 1572 1571 1570 1568 1566 1564 1562 1559 1557 1554 1551 1549 1545 1542 1539 1535 1532 1529 1526 1523 1521 1519 1517 1515 1513 1512 1510 1509 1508 1507
1587 1584 1584 1576 1566 1568 1570 1570 1571 1571 1571 1571 1572 1572 1571 1570 1569 1568 1566 1564 1562 1560 1558 1555 1553 1551 1548 1545 1542 1539 1535 1532 1529 1527 1524 1522 1520 1518 1516 1515 1513 1511 1510 1509
1590 1587 1581 1569 1564 1565 1569 1569 1565 1567 1568 1569 1571 1571 1570 1570 1569 1568 1566 1565 1563 1561 1559 1557 1554 1552 1550 1547 1545 1542 1538 1535 1532 1530 1528 1525 1523 1521 1520 1518 1516 1514 1513 1512
1587 1582 1580 1566 1559 1560 1566 1569 1560 1562 1565 1567 1570 1574 1571 1569 1568 1568 1566 1565 1563 1561 1560 1558 1556 1554 1552 1549 1547 1544 1541 1538 1536 1533 1531 1528 1526 1524 1523 1521 1519 1517 1516 1514
1584 1582 1574 1558 1557 1561 1574 1566 1555 1557 1561 1564 1566 1568 1568 1568 1568 1567 1566 1565 1564 1562 1560 1558 1556 1555 1553 1551 1549 1546 1544 1541 1539 1536 1534 1532 1530 1528 1526 1524 1522 1520 1518 1517
1582 1580 1572 1552 1555 1559 1556 1551 1552 1555 1558 1561 1564 1566 1566 1567 1567 1567 1566 1565 1563 1562 1560 1559 1557 1555 1554 1552 1550 1548 1546 1544 1542 1539 1537 1535 1533 1531 1529 1527 1525 1523 1522 1520
1563 1558 1547 1546 1545 1547 1548 1549 1551 1553 1557 1560 1562 1564 1565 1566 1566 1566 1565 1564 1563 1562 1561 1559 1558 1556 1555 1553 1551 1550 1548 1546 1544 1542 1540 1538 1537 1535 1533 1531 1529 1527 1525 1523
1553 1544 1541 1541 1542 1544 1546 1548 1550 1552 1555 1558 1560 1562 1564 1565 1565 1565 1565 1564 1563 1561 1560 1559 1558 1557 1555 1554 1552 1551 1550 1548 1546 1545 1543 1542 1540 1538 1536 1534 1532 1530 1528 1526
1546 1539 1537 1536 1537 1540 1544 1546 1549 1551 1554 1557 1559 1561 1562 1563 1564 1564 1564 1563 1562 1561 1560 1559 1558 1557 1556 1554 1553 1552 1551 1549 1548 1547 1546 1544 1543 1541 1539 1537 1535 1533 1531 1530
1538 1530 1531 1531 1532 1537 1540 1543 1546 1549 1552 1555 1557 1559 1561 1562 1563 1563 1563 1562 1562 1561 1560 1559 1558 1557 1556 1554 1553 1552 1551 1550 1549 1548 1547 1546 1545 1544 1542 1540 1538 1537 1535 1533
1526 1527 1528 1529 1531 1534 1537 1541 1544 1547 1550 1553 1555 1557 1559 1560 1561 1562 1562 1561 1561 1560 1559 1558 1557 1556 1555 1554 1553 1552 1551 1551 1550 1549 1549 1548 1547 1546 1544 1543 1541 1539 1537 1535
1524 1525 1526 1527 1529 1531 1535 1538 1542 1545 1548 1551 1553 1555 1557 1558 1559 1560 1560 1560 1559 1559 1558 1557 1556 1556 1555 1554 1553 1552 1551 1551 1550 1549 1549 1549 1548 1547 1546 1544 1543 1541 1539 1537
1520 1522 1524 1525 1527 1529 1532 1535 1539 1542 1545 1548 1550 1552 1554 1556 1557 1558 1558 1558 1558 1557 1556 1556 1555 1554 1554 1553 1552 1551 1551 1550 1550 1549 1549 1549 1548 1547 1546 1545 1544 1543 1541 1539
1516 1519 1521 1522 1524 1525 1528 1531 1534 1538 1541 1544 1547 1549 1551 1553 1554 1555 1555 1555 1555 1555 1554 1554 1553 1553 1552 1552 1551 1551 1550 1550 1549 1549 1549 1548 1548 1547 1547 1546 1545 1544 1542 1541
1512 1514 1516 1518 1520 1521 1524 1527 1530 1534 1537 1540 1543 1546 1548 1550 1551 1552 1552 1553 1552 1552 1552 1552 1551 1551 1550 1550 1549 1549 1549 1549 1548 1548 1548 1548 1547 1547 1546 1546 1545 1544 1543 1541
1508 1511 1513 1514 1516 1518 1520 1523 1527 1530 1534 1537 1540 1542 1544 1546 1547 1548 1549 1549 1549 1549 1549 1549 1549 1548 1548 1547 1547 1547 1546 1546 1546 1546 1546 1546 1546 1546 1545 1545 1544 1543 1543 1542
1503 1506 1509 1511 1513 1514 1517 1520 1523 1527 1530 1533 1536 1538 1540 1542 1543 1544 1545 1545 1546 1546 1546 1546 1546 1545 1545 1545 1544 1544 1544 1544 1544 1544 1544 1544 1544 1544 1544 1543 1543 1542 1542 1541
1498 1501 1504 1507 1509 1511 1513 1516 1520 1523 1526 1529 1531 1534 1535 1537 1539 1540 1541 1541 1542 1542 1542 1542 1542 1542 1542 1542 1541 1541 1541 1541 1541 1541 1541 1541 1541 1541 1541 1541 1541 1540 1540 1539
1494 1497 1500 1502 1505 1507 1510 1513 1516 1518 1522 1524 1527 1529 1531 1533 1534 1535 1536 1537 1538 1538 1538 1538 1538 1539 1538 1538 1538 1538 1538 1538 1537 1537 1537 1538 1538 1538 1538 1538 1538 1538 1538 1537
1491 1493 1496 1498 1501 1503 1506 1509 1512 1514 1517 1520 1522 1524 1526 1528 1529 1530 1531 1532 1533 1534 1534 1534 1535 1535 1535 1534 1534 1534 1534 1534 1534 1534 1534 1534 1534 1534 1534 1535 1535 1535 1535 1534
1488 1490 1493 1495 1498 1500 1503 1505 1507 1510 1512 1515 1517 1519 1521 1523 1524 1525 1526 1528 1528 1529 1529 1530 1530 1531 1531 1530 1530 1530 1530 1530 1529 1529 1529 1530 1530 1530 1530 1531 1531 1531 1531 1531
1487 1488 1490 1492 1494 1496 1498 1501 1503 1505 1508 1510 1512 1514 1516 1518 1519 1520 1521 1523 1523 1524 1524 1525 1526 1526 1526 1526 1526 1526 1526 1525 1525 1525 1525 1525 1525 1526 1526 1526 1526 1527 1527 1527
1486 1487 1488 1490 1491 1493 1495 1497 1499 1501 1503 1505 1507 1509 1511 1512 1514 1515 1516 1517 1518 1518 1519 1520 1521 1521 1521 1521 1521 1521 1521 1521 1521 1521 1521 1521 1521 1521 1521 1521 1522 1522 1522 1522
1486 1486 1487 1488 1489 1491 1492 1493 1495 1497 1498 1500 1502 1504 1505 1507 1508 1509 1510 1511 1512 1513 1514 1514 1515 1516 1516 1516 1516 1516 1516 1516 1516 1516 1516 1516 1516 1516 1516 1516 1516 1516 1517 1517
1486 1486 1487 1487 1488 1489 1489 1490 1492 1493 1494 1495 1497 1499 1500 1501 1502 1503 1504 1505 1506 1507 1508 1509 1509 1510 1510 1511 1511 1511 1511 1511 1511 1511 1511 1511 1510 1510 1510 1510 1511 1511 1511 1511